www.srh.weather.gov   
NOAA logo - Click to go to the NOAA homepage   NWS logo
Weather Roundup
Enter Your "City, ST" or zip code   
Current Version              Previous Version:    01  02  03  04  05  06  07  08  09  10  11  12  13  14  15  16  17  18  19  20  21  22  23  24  25  26  27  28  29  30  
   31  32  33  34  35  36  37  38  39  40  41  42  43  44  45  46  47  48  49  50  51  52  53  54  55  56  57  58  59  60  
[Printable]
777
ASUS44 KCRP 230610
HRRCRP

SOUTH TEXAS REGIONAL WEATHER ROUNDUP
NATIONAL WEATHER SERVICE CORPUS CHRISTI TX
100 AM CDT TUE SEP 23 2014


TXZ229>244-230700-
...CORPUS CHRISTI AREA OBSERVATIONS...

CITY           SKY/WX    TMP DP  RH WIND       PRES   REMARKS
CORPUS CHRISTI PTCLDY    76  73  91 N5        30.05S
NAS CORPUS CHR MOCLDY    81  75  82 E5        30.04S
ROCKPORT       MOCLDY    79  74  84 CALM      30.04F
KINGSVILLE NAS CLEAR     73  72  96 S3        30.05S
ALICE          PTCLDY    76  69  79 CALM      30.05S
FALFURRIAS     CLEAR    N/A N/A N/A CALM      30.05F
$$

...VICTORIA AREA OBSERVATIONS...

CITY           SKY/WX    TMP DP  RH WIND       PRES   REMARKS
VICTORIA       LGT RAIN  78  73  84 SE6       30.07R
BEEVILLE       RAIN      78  70  76 N6        30.07S
PLEASANTON     MOCLDY    79  67  66 CALM      30.09S
SAN ANTONIO    CLEAR     78  69  73 E5        30.10F
$$

...LAREDO AREA OBSERVATIONS...

CITY           SKY/WX    TMP DP  RH WIND       PRES   REMARKS
LAREDO         PTCLDY    78  64  61 SE6       30.10S
COTULLA        MOCLDY    79  68  69 E3        30.08S
DEL RIO        PTCLDY    79  64  60 NE6       30.08S
MCALLEN        CLEAR     76  73  91 N5        30.05F
HEBBRONVILLE     N/A     73  67  83 CALM      30.08F
$$

...OTHER TEXAS OBSERVATIONS...

CITY           SKY/WX    TMP DP  RH WIND       PRES   REMARKS
BROWNSVILLE    CLEAR     78  73  84 CALM      30.02F
HOUSTON        PTCLDY    73  61  65 NE7       30.09R
COL. STATION   MOCLDY    73  58  59 NE10      30.10F
AUSTIN         PTCLDY    74  68  81 N8        30.11R
WACO           PTCLDY    67  54  63 E3        30.14S
FORT WORTH     MOCLDY    71  52  50 E6        30.15S
WICHITA FALLS  MOCLDY    63  54  72 SE5       30.15F
LUBBOCK        MOCLDY    65  59  81 SE12      30.20F
EL PASO        MOCLDY    69  64  84 CALM      30.20F
$$

...MARINE OBSERVATIONS...

STATION/POSITION TIME  SKY/WX   TEMP    WIND        PRES    VSBY  WAVE   SWELL
                                AIR SEA DIR/SP/G                  HT/PER HT/PER
                 (UTC)          (F)     (DEG/KT/KT) (MB)    (MI)  (FT/S) (FT/S)
PORT ARANSAS     0600            83 83   70/  6/  7 1018.0S
BUOY 90 E PORT A 0600            81 84   20/ 14/ 16 1017.0F         3/ 6   2/ 6
BUOY 45 SE BAFFI 0600            83 84   80/ 12/ 16 1016.2F         4/ 5   2/ 6
BUOY 200 E PT IS 0600            83 85   60/ 16/ 19 1015.5F         5/ 6
BUOY 15 E GALVES 0600            81 83   60/ 21/ 23 1017.0R         5/ 5
$$



National Weather Service
Disclaimer
Last Modified: August 31, 2005
Privacy Policy